DMC3-FM1 (40715 NORAD) Tracking and Keplerian Element Data

This shows tracking and keplerian element data for the satellite.

Feedback or suggestion? Click here.




ElementValue
Catalog40715
NameDMC3-FM1
Epoch Orbit56334
Epoch Day354.2468745
Epoch Year2025
RAAN221.1653
Inclination97.6689
Eccentricity0.0004225
Argument of Perigee290.6583
Mean Anonmoly69.4179
Mean Motion14.85450654
Decay Rate3.57E-06
L11 40715U 15032A 25354.24687450 .00000357 00000+0 47418-4 0 9995
L22 40715 97.6689 221.1653 0004225 290.6583 69.4179 14.85450654563349



Live tracking and technical data element details for DMC3-FM1 (NORAD 40715). DMC3-FM1 can be tracked NOW for your location showing map with azimuth and elevation plus other details from your city location.







IsCatalogInMostPopularTable: catalog: 40715, numindb: 462
Update: records affected: 1



GetName: 40715 DMC3-FM1

Hit Count: updated at: Mon, 18 May 2026 08:57:16 GMT